TimeCEST,TemperatureF,Dew PointF,Humidity,Sea Level PressureIn,VisibilityMPH,Wind Direction,Wind SpeedMPH,Gust SpeedMPH,PrecipitationIn,Events,Conditions,WindDirDegrees,DateUTC
12:55 AM,24.8,14.0,64,30.12,-9999.0,NNE,20.7,-,N/A,,Clear,20,2012-10-10 22:55:00
1:55 AM,24.8,15.8,69,30.12,-9999.0,NE,12.7,-,N/A,,Clear,40,2012-10-10 23:55:00
2:00 AM,25,15,54,,7,NE,12.7,,,,Partly Cloudy,40,2012-10-11 00:00:00
2:55 AM,24.8,14.0,64,30.09,-9999.0,NE,11.5,-,N/A,,Clear,50,2012-10-11 00:55:00
3:55 AM,26.6,8.6,47,30.09,-9999.0,East,5.8,-,N/A,,Clear,80,2012-10-11 01:55:00
4:55 AM,24.8,10.4,54,30.09,-9999.0,SSW,6.9,-,N/A,,Clear,210,2012-10-11 02:55:00
5:55 AM,24.8,10.4,54,30.09,-9999.0,SSW,13.8,-,N/A,,Clear,200,2012-10-11 03:55:00
6:55 AM,24.8,12.2,59,30.09,6.2,SSW,15.0,-,N/A,,Partly Cloudy,200,2012-10-11 04:55:00
7:55 AM,24.8,14.0,64,30.06,6.2,SSW,16.1,-,N/A,,Mostly Cloudy,200,2012-10-11 05:55:00
8:00 AM,25,14,51,,12,SSW,16.1,,,,Mostly Cloudy,200,2012-10-11 06:00:00
8:55 AM,24.8,14.0,64,30.06,6.2,South,18.4,-,N/A,,Scattered Clouds,190,2012-10-11 06:55:00
9:55 AM,26.6,15.8,64,30.09,6.2,SSW,16.1,-,N/A,,Scattered Clouds,200,2012-10-11 07:55:00
10:55 AM,26.6,17.6,69,30.09,6.2,South,11.5,-,N/A,,Mostly Cloudy,190,2012-10-11 08:55:00
11:55 AM,28.4,19.4,69,30.09,3.7,SSW,11.5,-,N/A,,Mostly Cloudy,210,2012-10-11 09:55:00
12:55 PM,28.4,19.4,69,30.06,1.9,SSW,11.5,-,N/A,,Mostly Cloudy,200,2012-10-11 10:55:00
1:55 PM,28.4,19.4,69,30.06,1.9,SSW,13.8,-,N/A,,Mostly Cloudy,210,2012-10-11 11:55:00
2:00 PM,28,19,59,,2,SSW,13.8,,,,Mist,210,2012-10-11 12:00:00
2:55 PM,28.4,21.2,74,30.04,1.2,SSW,8.1,-,N/A,,Mostly Cloudy,200,2012-10-11 12:55:00
3:55 PM,30.2,23.0,75,30.04,0.5,SSW,6.9,-,N/A,Fog,Light Freezing Fog,210,2012-10-11 13:55:00
4:55 PM,28.4,19.4,69,30.04,0.2,SSW,8.1,-,N/A,Fog,Light Freezing Fog,200,2012-10-11 14:55:00
5:00 PM,29,20,58,,0,SSW,8.1,,,Fog,Heavy Fog,200,2012-10-11 15:00:00
5:55 PM,28.4,23.0,80,30.04,0.2,SW,4.6,-,N/A,Fog,Light Freezing Fog,230,2012-10-11 15:55:00
6:55 PM,28.4,21.2,74,30.04,0.5,WSW,5.8,-,N/A,Fog,Light Freezing Fog,240,2012-10-11 16:55:00
7:55 PM,26.6,19.4,74,30.04,0.1,SSW,5.8,-,N/A,Fog,Light Freezing Fog,210,2012-10-11 17:55:00
8:00 PM,27,20,64,,0,SSW,5.8,,,Fog,Heavy Fog,210,2012-10-11 18:00:00
8:55 PM,26.6,21.2,80,30.06,0.2,South,6.9,-,N/A,Fog,Light Freezing Fog,190,2012-10-11 18:55:00
9:55 PM,24.8,21.2,86,30.06,0.2,SSW,6.9,-,N/A,Fog,Light Freezing Fog,200,2012-10-11 19:55:00
11:00 PM,25,20,72,,0,SSW,6.9,,,Fog,Heavy Fog,200,2012-10-11 21:00:00